Location: Civry
(47.2902°N, 4.6156°E)
Time: 17:42:52
(UTC+00:00)

Terra - Pass Details

Date: 09 April 2020
Orbit: 701 x 703 km, 98.2° (Epoch: 29 May)

Event Time Altitude Azimuth Distance (km) Brightness Sun altitude
Exits shadow 20:29:27 24° 70° (ENE) 1,447 3.1 -20.1°
Maximum altitude 20:29:49 24° 63° (ENE) 1,438 3.2 -20.2°
Drops below altitude 10° 20:33:37 10° 10° (N) 2,183 4.7 -20.7°
Sets 20:36:13 0° 357° (N) 3,106 5.8 -21.0°
